Wind_Speed
33 34 36 38 42 45 42 41 41 45 45 42 42 41 36 29 28 27 26 19 19 20 20 21 28 24 24 24 22 19 19 17 15 17 21 26 29 29 29 30 31 32 33 34 32 31 33 33 32
34 35 37 37 41 46 45 44 43 49 53 49 42 44 42 34 32 26 24 18 18 20 18 26 28 28 25 27 30 27 25 21 17 17 16 20 28 29 30 29 31 34 35 34 34 33 31 32 34
34 36 37 39 39 45 45 48 47 50 52 52 48 46 44 39 39 28 22 23 26 27 17 19 22 29 26 30 32 36 31 29 29 27 22 18 23 28 32 33 32 33 33 34 34 33 34 31 31
34 36 37 39 39 39 39 47 50 50 50 48 48 47 49 45 42 38 35 28 30 30 24 20 20 23 36 30 27 36 38 35 34 33 30 26 23 26 29 29 27 29 33 34 33 32 34 34 33
33 35 38 41 40 38 41 45 44 51 51 49 45 48 50 53 50 42 41 30 37 39 31 32 32 35 35 36 42 45 43 39 39 37 36 31 27 26 26 28 29 29 28 29 31 33 34 34 33
34 36 37 39 41 41 41 41 41 48 51 50 49 50 55 56 56 55 45 37 34 32 30 33 35 39 43 46 46 44 41 45 43 42 40 37 32 30 32 34 35 36 34 33 32 32 33 34 34
37 38 39 40 39 36 37 42 46 47 46 47 49 51 57 59 60 56 51 53 48 36 38 39 36 32 41 43 44 43 42 41 41 43 44 43 40 39 39 38 38 38 39 40 40 38 39 41 43
40 42 43 44 40 37 39 41 44 47 50 49 48 49 56 60 60 59 55 57 55 55 56 56 40 39 45 47 50 51 47 45 48 45 45 47 46 45 46 46 46 45 44 43 44 45 47 48 50
46 47 48 46 41 40 40 42 46 46 46 48 49 53 60 59 59 61 59 59 54 52 55 59 55 51 40 41 55 57 58 55 51 52 52 51 54 53 53 52 53 52 53 52 52 53 54 54 56
44 49 50 47 47 45 43 44 48 48 47 47 45 49 58 56 57 58 61 60 56 58 54 54 54 45 44 44 50 53 63 57 56 55 53 57 61 59 59 59 59 61 60 60 61 61 60 59 58
42 46 44 50 51 51 49 50 51 52 49 47 47 51 52 54 58 59 58 61 63 57 54 51 48 44 50 58 51 46 57 55 55 54 51 53 54 57 59 60 61 61 61 63 64 64 65 64 61
39 40 44 47 51 53 50 53 55 55 54 52 51 52 53 54 55 58 60 60 65 64 62 61 60 65 64 62 60 59 61 57 54 55 53 54 55 59 58 58 58 58 58 56 57 57 56 57 56
41 39 40 45 49 51 53 55 58 59 57 57 57 57 58 56 57 58 57 60 66 66 69 72 72 72 71 66 62 59 62 65 62 59 54 55 54 57 56 54 50 52 53 54 54 55 56 57 55
42 43 45 45 47 49 52 53 57 61 61 59 61 59 60 61 62 63 61 61 64 65 66 68 69 70 69 64 64 69 72 69 68 63 59 57 56 53 51 49 49 49 52 54 57 58 59 59 55
45 45 49 52 48 46 45 48 50 57 57 59 61 62 62 64 66 68 68 66 66 68 68 68 69 69 71 70 67 68 71 70 68 66 56 55 55 58 56 59 58 57 60 59 60 60 59 64 63
48 49 53 49 50 50 48 51 51 50 52 58 61 62 62 64 68 68 70 71 69 66 66 65 66 67 68 69 68 68 67 68 69 65 58 54 52 54 56 59 61 62 60 62 64 63 64 66 67
53 52 52 53 52 50 52 55 59 54 53 54 59 62 60 63 67 68 68 69 71 68 66 67 65 65 63 68 66 63 58 56 56 56 58 56 55 52 55 57 59 59 58 59 60 64 66 66 65
56 58 56 57 57 56 55 57 65 63 58 58 59 63 63 61 61 64 65 64 64 65 65 64 63 63 59 60 60 57 53 54 55 58 60 60 59 59 60 59 59 60 60 60 62 63 62 62 63
57 58 60 64 62 59 61 57 62 64 64 65 65 66 68 67 63 63 66 64 63 64 63 63 62 61 61 60 61 61 60 62 63 63 63 63 66 65 64 64 63 63 64 62 59 58 61 60 63
58 57 58 59 65 65 63 61 64 66 67 70 71 74 75 73 70 66 66 67 67 68 69 69 68 67 66 65 66 68 68 69 70 69 68 66 67 68 68 67 66 65 62 60 58 58 60 60 61
58 59 60 60 62 65 66 64 65 69 71 74 78 78 74 71 71 70 70 70 71 70 73 75 75 74 74 72 71 74 74 74 75 73 71 70 71 72 72 70 69 65 62 61 61 60 60 59 60
53 57 60 58 57 62 65 63 68 70 73 78 76 71 72 74 74 74 75 77 77 76 78 80 80 81 81 77 75 75 75 79 78 76 76 75 74 73 72 72 71 68 66 65 64 63 62 63 62
43 44 49 56 56 57 63 64 63 68 72 76 75 73 74 74 75 78 81 83 83 83 82 82 85 86 86 85 81 79 79 81 80 79 79 78 76 76 74 74 72 70 69 69 68 66 65 64 65
51 52 51 49 54 54 62 67 68 72 73 74 74 74 75 75 76 78 81 84 85 86 86 87 88 88 88 88 87 84 84 83 82 81 80 81 80 79 77 75 73 72 71 71 70 69 68 67 66
56 57 55 50 48 49 57 60 65 65 73 76 76 76 77 78 77 79 80 81 82 83 85 87 86 88 90 90 89 87 85 83 81 81 80 80 82 80 78 77 75 73 72 72 72 71 69 68 67
62 62 60 51 47 48 55 48 54 58 62 70 73 77 76 74 75 77 79 81 83 84 87 86 85 86 87 87 88 88 84 82 81 81 80 80 79 82 78 79 78 75 73 74 73 72 71 70 68
66 67 61 55 50 48 48 51 52 53 58 62 66 67 72 76 76 75 76 76 78 80 83 83 83 84 84 85 84 85 84 81 81 82 82 80 78 79 81 81 82 80 77 75 73 71 71 70 67
63 62 59 55 51 50 49 50 52 52 56 60 65 65 66 66 71 75 79 80 80 80 81 80 79 79 80 80 83 83 84 81 80 81 81 80 80 79 80 79 77 78 77 74 72 70 68 66 63
56 56 56 55 54 53 52 52 53 54 57 60 63 66 68 70 67 65 66 69 72 73 75 77 79 79 80 81 81 84 85 82 80 80 80 83 82 80 78 77 75 73 72 72 72 67 65 65 66
53 52 53 57 58 55 45 37 42 45 48 55 60 62 65 70 71 70 69 68 67 68 71 70 70 70 70 70 71 75 81 76 78 79 77 74 76 80 84 83 78 75 72 72 69 65 65 62 63
Wind_Direction
225 223 223 222 222 223 220 214 206 205 206 204 209 200 198 193 210 216 223 227 240 240 251 255 263 261 255 250 243 237 244 242 249 249 249 248 242 243 246 254 258 264 267 271 276 278 284 291 292
225 226 225 224 223 221 220 218 215 211 215 214 215 214 215 205 204 206 214 238 229 239 250 242 250 258 251 255 249 244 239 240 238 255 261 259 246 249 253 253 262 266 266 269 272 274 277 281 289
227 227 227 227 223 223 220 220 220 220 218 219 213 216 220 218 211 210 217 233 241 242 240 243 256 245 249 256 260 258 249 247 248 250 258 260 254 253 256 257 258 263 267 273 276 278 278 279 284
228 229 229 228 225 222 224 222 225 224 223 223 217 218 221 222 217 229 219 236 244 245 245 243 246 265 250 264 269 262 254 250 253 257 261 258 264 256 252 260 266 271 270 272 274 277 282 281 282
229 229 230 230 227 223 225 226 226 226 223 224 224 222 230 224 225 226 236 236 247 249 248 246 257 266 262 267 270 264 260 254 254 254 254 260 261 261 262 263 269 273 276 278 279 280 282 284 285
231 233 233 233 229 229 232 228 225 230 227 223 224 229 231 233 234 234 234 231 228 233 241 250 256 266 269 266 268 262 258 259 257 260 256 258 255 256 260 265 268 270 273 274 276 281 283 283 285
235 238 238 236 232 232 235 236 231 231 230 229 227 232 237 236 234 239 241 240 238 227 232 251 256 257 258 267 266 251 260 261 264 261 260 259 263 265 263 262 264 266 267 268 272 276 282 286 285
235 238 240 238 233 230 235 234 233 232 231 230 233 235 238 240 238 239 241 242 248 248 246 248 259 252 250 257 258 249 258 254 262 271 265 264 265 265 268 272 276 277 274 274 275 277 282 285 289
237 237 240 241 237 236 237 238 236 235 232 232 231 232 237 240 241 240 241 244 246 250 257 247 252 262 255 263 255 252 260 263 266 272 269 267 266 267 269 270 271 273 276 276 276 277 280 284 288
242 243 242 244 242 242 241 240 239 235 232 232 237 238 239 241 244 245 245 245 246 250 253 246 251 251 255 269 271 258 257 260 264 274 279 273 265 267 270 270 270 271 274 276 276 277 277 278 281
244 243 245 245 243 242 241 240 238 240 234 234 235 238 242 242 241 243 245 245 244 248 247 242 242 246 259 268 262 261 261 261 267 271 282 280 275 274 274 273 273 273 274 274 275 277 277 278 280
250 245 243 244 244 244 241 243 243 241 240 239 240 237 237 243 247 241 241 241 245 245 240 243 247 253 255 260 261 264 264 266 264 277 276 276 274 274 274 273 274 276 274 276 280 278 280 281 280
252 249 247 245 244 243 243 243 244 244 240 242 244 243 240 239 245 247 246 244 244 247 249 252 258 258 258 255 254 255 262 269 275 278 276 272 271 272 272 271 274 274 275 276 275 277 277 280 281
251 250 249 247 246 244 243 243 247 246 244 243 243 245 248 247 246 247 246 247 248 250 252 252 253 258 258 256 257 258 263 269 273 275 274 275 274 273 270 271 272 272 280 276 278 276 274 275 280
252 252 248 248 247 250 249 248 245 248 249 247 247 246 245 247 249 251 249 247 249 253 255 256 257 260 263 260 259 261 266 271 272 273 271 269 270 271 271 270 273 275 277 279 277 277 279 273 278
249 249 252 248 248 248 249 250 244 244 245 247 246 244 245 246 245 247 250 250 248 250 254 257 259 260 262 265 265 264 265 267 270 272 272 271 268 266 266 269 271 275 278 278 279 280 281 279 281
253 251 251 253 251 246 244 249 250 244 245 245 248 248 243 243 244 245 248 251 253 249 247 250 254 256 259 264 266 266 265 265 268 271 273 273 273 273 273 274 275 276 278 279 278 281 281 280 281
255 256 254 252 249 248 246 243 249 248 244 244 247 251 251 245 246 247 246 246 249 253 254 251 251 252 252 256 259 262 264 264 264 266 269 271 272 272 274 276 278 279 279 278 277 277 276 275 276
254 254 254 255 252 249 249 248 252 252 249 248 245 246 251 250 246 248 251 251 252 252 251 252 253 253 253 253 257 261 263 264 264 265 268 271 274 274 276 277 278 279 279 279 279 277 274 269 272
266 260 255 253 253 249 248 249 248 250 248 246 247 247 246 250 251 249 250 254 255 256 257 256 256 257 256 257 260 263 264 266 268 268 269 269 272 273 274 275 276 277 278 279 278 278 277 276 272
271 269 263 257 254 251 248 246 249 249 250 248 246 245 248 251 254 255 255 253 254 256 257 259 260 257 257 257 257 260 265 267 268 271 271 270 270 270 272 274 275 277 278 278 278 280 282 282 280
260 264 266 263 259 256 250 245 246 249 250 249 252 253 251 251 253 254 254 255 255 253 255 259 261 263 262 260 258 259 261 265 266 267 267 268 268 270 271 274 277 279 280 281 281 281 281 282 283
260 266 262 260 259 256 254 247 247 248 249 250 250 250 251 251 250 250 253 255 256 256 255 256 259 262 264 265 263 262 263 264 266 267 269 270 271 272 273 274 275 275 277 278 279 281 281 282 282
265 268 266 261 252 251 254 251 245 244 247 249 251 251 251 251 251 252 252 252 254 257 259 260 261 261 262 263 264 264 265 266 269 270 272 274 274 273 273 274 274 275 276 277 277 278 279 280 281
259 265 264 264 266 258 255 255 257 254 251 250 250 250 251 252 252 253 254 255 256 257 258 258 259 261 263 264 265 265 265 266 268 269 270 271 273 273 274 274 274 274 275 277 278 278 278 278 279
254 257 262 264 269 264 257 259 258 257 251 251 249 250 249 250 250 251 253 255 257 258 259 259 260 261 262 264 264 265 264 265 266 267 267 269 270 274 275 275 275 274 274 274 275 276 277 276 275
248 254 261 264 265 265 267 263 256 259 255 253 253 253 252 249 249 249 250 251 252 255 257 259 261 262 264 265 266 268 268 267 267 268 269 269 268 269 271 272 273 274 273 274 275 275 276 275 276
248 254 261 266 264 263 262 263 260 255 256 255 253 251 252 252 251 250 250 250 252 253 255 257 259 261 262 264 266 267 268 268 268 268 268 267 265 264 265 267 269 272 274 274 273 272 272 273 273
248 254 262 265 270 269 268 265 261 257 255 256 259 258 254 253 252 252 250 252 252 253 255 257 258 259 261 263 264 265 265 267 268 268 266 265 265 266 264 264 265 267 268 271 270 270 270 273 274
257 260 265 268 271 275 267 261 260 258 257 257 257 259 263 264 258 255 255 255 254 254 254 253 252 253 255 259 263 266 265 262 260 264 262 262 266 264 263 263 263 262 263 265 266 268 272 270 276
Height
10929 10931 10931 10934 10936 10938 10946 10951 10954 10956 10957 10958 10959 10961 10965 10968 10969 10967 10969 10970 10972 10972 10974 10976 10978 10979 10982 10983 10984 10983 10983 10984 10986 10987 10989 10990 10991 10992 10993 10994 10995 10996 10996 10996 10996 10998 10998 10998 10998
10924 10926 10927 10929 10930 10934 10940 10945 10949 10950 10950 10954 10957 10960 10963 10967 10966 10966 10966 10967 10968 10969 10969 10971 10974 10976 10976 10978 10980 10981 10981 10981 10983 10986 10987 10987 10988 10991 10992 10992 10993 10994 10992 10992 10992 10992 10993 10994 10993
10920 10921 10923 10924 10925 10928 10934 10938 10940 10941 10945 10949 10954 10958 10958 10958 10959 10960 10961 10963 10965 10966 10967 10969 10971 10973 10974 10975 10975 10978 10979 10979 10980 10981 10983 10984 10985 10986 10987 10988 10989 10989 10989 10989 10989 10989 10989 10990 10989
10915 10916 10917 10918 10922 10926 10929 10929 10932 10939 10943 10948 10954 10956 10953 10951 10953 10955 10958 10960 10961 10962 10964 10965 10967 10969 10971 10971 10971 10972 10974 10976 10976 10977 10979 10981 10982 10983 10983 10984 10984 10985 10985 10985 10986 10986 10986 10986 10987
10910 10910 10911 10912 10917 10922 10922 10924 10931 10933 10937 10943 10950 10951 10946 10946 10948 10951 10954 10958 10958 10958 10959 10961 10962 10964 10963 10964 10966 10969 10970 10970 10971 10973 10975 10976 10977 10979 10980 10979 10980 10981 10982 10983 10982 10982 10982 10982 10984
10905 10904 10906 10908 10912 10917 10919 10923 10926 10926 10932 10940 10943 10942 10937 10939 10943 10947 10950 10952 10951 10952 10954 10956 10956 10958 10960 10960 10961 10962 10963 10965 10966 10968 10969 10970 10971 10972 10973 10973 10974 10975 10976 10977 10977 10976 10976 10975 10976
10899 10899 10900 10902 10907 10913 10914 10916 10920 10921 10926 10931 10935 10932 10928 10930 10936 10942 10944 10943 10945 10947 10948 10950 10950 10950 10954 10955 10955 10955 10956 10957 10959 10960 10961 10964 10964 10966 10966 10966 10967 10968 10970 10970 10971 10971 10970 10968 10967
10892 10891 10891 10894 10903 10907 10906 10908 10910 10914 10918 10921 10922 10922 10919 10919 10927 10930 10933 10934 10936 10940 10940 10942 10943 10944 10947 10947 10949 10950 10950 10951 10953 10955 10956 10957 10958 10958 10959 10961 10962 10963 10963 10963 10963 10963 10963 10962 10959
10882 10882 10883 10887 10895 10898 10899 10900 10900 10903 10909 10912 10913 10912 10907 10914 10919 10920 10923 10924 10930 10931 10930 10933 10935 10935 10937 10940 10944 10945 10944 10944 10944 10945 10947 10948 10949 10950 10952 10953 10953 10952 10953 10954 10955 10956 10955 10955 10952
10874 10876 10878 10883 10885 10888 10891 10891 10891 10895 10900 10903 10905 10905 10904 10912 10912 10913 10916 10920 10921 10921 10923 10925 10925 10926 10928 10931 10933 10933 10936 10937 10935 10936 10937 10938 10939 10941 10943 10944 10944 10943 10943 10943 10944 10945 10945 10945 10945
10866 10868 10873 10872 10875 10877 10880 10880 10882 10884 10891 10895 10898 10898 10899 10902 10904 10906 10907 10911 10912 10912 10915 10916 10916 10916 10922 10922 10926 10926 10926 10925 10926 10928 10928 10928 10928 10930 10932 10932 10932 10934 10933 10932 10932 10933 10934 10934 10935
10857 10862 10862 10862 10864 10866 10870 10870 10872 10877 10881 10882 10885 10889 10891 10892 10892 10897 10901 10904 10900 10905 10907 10905 10906 10907 10912 10916 10916 10918 10916 10915 10916 10919 10918 10919 10918 10919 10920 10922 10921 10921 10922 10921 10921 10922 10922 10922 10923
10849 10853 10853 10853 10854 10857 10859 10859 10860 10863 10870 10873 10874 10878 10881 10885 10885 10884 10889 10892 10892 10894 10896 10896 10897 10897 10901 10905 10906 10906 10906 10905 10906 10908 10907 10908 10909 10910 10911 10911 10909 10910 10911 10910 10910 10911 10912 10913 10913
10842 10843 10843 10843 10843 10846 10849 10852 10850 10849 10857 10863 10863 10870 10872 10876 10874 10872 10877 10880 10880 10882 10883 10886 10887 10883 10886 10892 10895 10895 10896 10896 10897 10898 10897 10896 10898 10899 10899 10900 10900 10900 10900 10900 10899 10900 10900 10901 10902
10832 10832 10832 10829 10836 10839 10843 10843 10841 10840 10847 10850 10851 10855 10859 10862 10862 10860 10863 10869 10869 10870 10871 10872 10873 10873 10869 10878 10882 10883 10884 10882 10884 10886 10887 10889 10888 10886 10887 10889 10890 10889 10889 10889 10887 10888 10888 10889 10890
10821 10821 10818 10824 10826 10829 10833 10829 10831 10833 10834 10832 10834 10838 10842 10846 10848 10852 10852 10854 10860 10861 10861 10861 10861 10862 10861 10859 10866 10872 10874 10873 10871 10872 10875 10879 10879 10877 10876 10878 10879 10880 10880 10878 10876 10876 10877 10877 10878
10807 10810 10812 10812 10815 10820 10822 10817 10815 10822 10823 10822 10819 10818 10826 10829 10833 10838 10839 10840 10841 10849 10852 10852 10851 10852 10852 10849 10851 10857 10862 10860 10859 10857 10861 10865 10866 10867 10866 10865 10868 10869 10869 10868 10867 10865 10864 10866 10866
10796 10796 10800 10799 10801 10803 10807 10808 10800 10806 10812 10810 10809 10805 10806 10813 10815 10821 10828 10831 10832 10833 10836 10841 10841 10842 10844 10845 10843 10846 10848 10847 10848 10849 10852 10853 10854 10857 10854 10855 10857 10857 10856 10856 10854 10852 10852 10853 10853
10778 10781 10785 10784 10787 10793 10794 10797 10794 10796 10798 10796 10796 10794 10791 10796 10805 10809 10809 10816 10820 10822 10824 10826 10828 10831 10833 10836 10834 10835 10836 10837 10839 10840 10843 10841 10839 10842 10842 10843 10845 10845 10844 10842 10842 10840 10838 10839 10838
10763 10766 10766 10768 10769 10779 10781 10784 10780 10776 10779 10779 10778 10777 10777 10783 10790 10800 10803 10805 10807 10808 10808 10810 10812 10817 10820 10823 10823 10823 10825 10824 10824 10826 10829 10830 10829 10827 10830 10831 10832 10833 10833 10831 10831 10828 10827 10825 10826
10746 10747 10748 10752 10755 10760 10766 10768 10764 10760 10759 10759 10757 10761 10773 10782 10786 10788 10789 10791 10792 10794 10790 10790 10793 10800 10804 10811 10816 10813 10812 10811 10810 10811 10815 10817 10819 10817 10817 10818 10819 10820 10819 10818 10817 10817 10814 10812 10812
10734 10732 10732 10734 10739 10742 10747 10752 10747 10744 10742 10738 10751 10767 10769 10771 10772 10774 10774 10772 10773 10777 10776 10775 10775 10777 10780 10791 10798 10799 10800 10795 10796 10798 10799 10801 10803 10804 10805 10803 10803 10803 10802 10802 10802 10803 10802 10800 10799
10721 10719 10719 10718 10720 10722 10722 10730 10730 10723 10725 10730 10738 10745 10749 10753 10757 10757 10756 10754 10755 10757 10762 10763 10761 10760 10763 10767 10777 10782 10782 10779 10780 10782 10781 10783 10786 10785 10788 10789 10791 10793 10791 10790 10789 10789 10788 10787 10787
10705 10703 10702 10701 10701 10705 10700 10706 10706 10708 10716 10717 10722 10728 10730 10734 10737 10738 10738 10738 10739 10740 10743 10744 10743 10744 10747 10749 10752 10758 10760 10763 10765 10766 10767 10764 10766 10767 10769 10772 10775 10776 10776 10775 10776 10776 10776 10774 10773
10685 10685 10686 10690 10690 10691 10686 10690 10688 10698 10704 10705 10707 10708 10710 10715 10721 10720 10721 10721 10723 10722 10721 10724 10727 10726 10726 10728 10733 10740 10743 10749 10751 10750 10751 10751 10746 10749 10751 10752 10758 10761 10760 10757 10758 10759 10760 10760 10759
10663 10665 10670 10677 10676 10674 10674 10678 10676 10679 10687 10686 10688 10689 10695 10698 10701 10701 10703 10705 10706 10704 10702 10706 10707 10706 10707 10710 10711 10715 10723 10729 10731 10730 10732 10733 10735 10729 10735 10732 10736 10742 10743 10742 10743 10744 10744 10744 10744
10639 10644 10654 10660 10663 10662 10660 10661 10664 10663 10667 10667 10667 10669 10672 10678 10683 10685 10686 10689 10688 10686 10683 10686 10688 10687 10689 10689 10693 10695 10700 10707 10711 10711 10713 10716 10718 10717 10714 10715 10714 10718 10723 10726 10727 10728 10728 10726 10726
10624 10630 10637 10642 10647 10648 10650 10646 10646 10649 10647 10646 10648 10650 10649 10651 10657 10662 10664 10666 10668 10669 10668 10669 10672 10673 10673 10673 10674 10675 10677 10686 10689 10693 10694 10695 10697 10699 10697 10697 10699 10698 10700 10705 10708 10711 10713 10713 10713
10613 10618 10621 10625 10627 10630 10634 10633 10632 10633 10631 10628 10627 10629 10631 10631 10635 10639 10643 10645 10648 10650 10649 10652 10653 10654 10655 10655 10655 10656 10661 10663 10668 10671 10673 10675 10678 10681 10681 10680 10681 10685 10686 10689 10687 10692 10695 10698 10699
10600 10604 10606 10607 10611 10612 10615 10620 10615 10614 10615 10613 10612 10612 10611 10612 10616 10621 10624 10626 10628 10630 10629 10631 10633 10636 10637 10638 10639 10639 10639 10644 10649 10647 10652 10654 10652 10658 10660 10662 10665 10668 10669 10674 10674 10675 10678 10680 10683